Regional Weather Roundup
Issued by NWS Bismarck, ND

Home | Current Version | Previous Version | Graphics & Text | Print | Product List | Glossary On
Versions: 1 2 3 4 5 6 7 8 9 10 11 12 13 14 15 16 17 18 19 20 21 22 23 24 25 26 27 28 29 30 31 32 33 34 35 36 37 38 39 40 41 42 43 44 45 46 47 48 49 50
000
ASUS43 KBIS 290610
RWRBIS

NWR BROADCAST TEXT
NATIONAL WEATHER SERVICE BISMARCK ND
100 AM CDT WED MAR 29 2017

NOTE: "FAIR" INDICATES FEW OR NO CLOUDS BELOW 12,000 FEET WITH NO
SIGNIFICANT WEATHER AND/OR OBSTRUCTIONS TO VISIBILITY.


CITY           SKY/WX    TMP DP  RH WIND       PRES   REMARKS
WILLISTON      FOG       35  35 100 S3        30.10F VSB 1/4
MINOT          CLOUDY    42  39  89 CALM      30.10F
MINOT AFB      MOCLDY    41  39  94 NE6       30.09F
BISMARCK       CLOUDY    48  39  71 S3        30.16R
DICKINSON      CLOUDY    44  41  89 S13       30.09F
GARRISON         N/A     42  37  82 SW5       30.11S
HETTINGER ARPT CLOUDY    44  40  85 S13       30.15F
JAMESTOWN      FAIR      38  36  92 CALM      30.17S
HAZEN          CLOUDY    46  39  76 S10       30.14R
LINTON           N/A     46  43  87 E5        30.18S
MANDAN         CLOUDY    46  41  81 S12       30.15S
STANLEY        CLOUDY    41  41 100 CALM      30.11F
TIOGA          CLOUDY    43  43 100 SE7       30.11S
WATFORD CITY   CLOUDY    41  41 100 SW5       30.10F
$$

CITY           SKY/WX    TMP DP  RH WIND       PRES   REMARKS
GRAND FORKS    FAIR      35  35 100 N5        30.20F
GRAND FORKS AF FAIR      32  32 100 NE3       30.21S
DEVILS LAKE    FAIR      34  34 100 SE6       30.18F FOG
FARGO          FAIR      40  39  97 NE3       30.18F
CAVALIER       FAIR      32  32 100 CALM      30.20F FOG
GRAFTON        FAIR      34  34 100 CALM      30.23F
GWINNER        CLEAR     41  37  87 MISG      30.18S
LANGDON        CLOUDY    36  34  93 SE7       30.18F
ROLLA          CLOUDY    34  34 100 S5        30.16F
$$

CITY           SKY/WX    TMP DP  RH WIND       PRES   REMARKS
ABERDEEN       FAIR      44  34  67 E7        30.16S
MOBRIDGE       CLOUDY    44  38  79 N3        30.13S
BUFFALO          N/A     42  40  92 SE8       30.06F
RAPID CITY     CLOUDY    42  40  92 S8        30.11F
GLASGOW        FAIR      40  33  76 SE10      30.05S
SIDNEY         FAIR      39  38  96 SW6       30.10F
WOLF POINT     CLOUDY    40  36  86 VRB3      30.08S
GLENDIVE       FAIR      34  33  96 SW7       30.11F
MILES CITY     FAIR      39  33  79 S7        30.09F
BAKER          FAIR      41  36  82 W3        30.11F
$$

CITY           SKY/WX    TMP DP  RH WIND       PRES   REMARKS
BILLINGS       FAIR      43  32  65 SW12      30.09S
GREAT FALLS    FAIR      42  24  49 SW10      30.06S
REGINA         FOG       36  36 100 SE15G22   30.02F VSB 1/2
ESTEVAN        FRZ DRZL  32  32 100 SE3       30.09F VSB 1/8
$$





USA.gov is the U.S. government's official web portal to all federal, state and local government web resources and services.